AUA1Y LOWW-EDDF

Flight info

Callsign AUA1Y
Flight time 1h 0m
Altitude 30000
Route LUGEM DCT SUBEN T161 DEBHI DEBHI1B
Aircraft A320/M-SDE3FGHIRWY/LB1

Departure

Time 2026-05-06 12:45
Airport Vienna International Airport (LOWW)

Arrival

Time 2026-05-06 13:46
Airport Frankfurt Main Airport (EDDF)
Time Latitude Longitude Altitude Speed Heading
2026-05-06 12:20 48.11897 16.56768 617 ft 0 kts 206°
2026-05-06 12:36 48.11898 16.56768 609 ft 1 kts 206°
2026-05-06 12:37 48.11920 16.56783 612 ft 4 kts 202°
2026-05-06 12:37 48.11941 16.56794 619 ft 4 kts 191°
2026-05-06 12:37 48.11964 16.56795 625 ft 4 kts 144°
2026-05-06 12:37 48.11971 16.56785 625 ft 0 kts 116°
2026-05-06 12:39 48.11971 16.56787 609 ft 2 kts 116°
2026-05-06 12:40 48.11942 16.56874 612 ft 14 kts 116°
2026-05-06 12:40 48.11894 16.57022 613 ft 18 kts 116°
2026-05-06 12:40 48.11854 16.57197 609 ft 18 kts 95°
2026-05-06 12:40 48.11808 16.57371 617 ft 18 kts 98°
2026-05-06 12:41 48.11838 16.57547 621 ft 17 kts 62°
2026-05-06 12:41 48.11935 16.57557 620 ft 14 kts 343°
2026-05-06 12:41 48.11986 16.57600 611 ft 0 kts 67°
2026-05-06 12:43 48.11984 16.57658 609 ft 13 kts 104°
2026-05-06 12:43 48.11952 16.57795 622 ft 15 kts 125°
2026-05-06 12:43 48.11882 16.57859 617 ft 8 kts 164°
2026-05-06 12:43 48.11878 16.57860 614 ft 0 kts 164°
2026-05-06 12:44 48.11830 16.57880 616 ft 28 kts 164°
2026-05-06 12:45 48.11412 16.58058 613 ft 94 kts 164°
2026-05-06 12:45 48.10602 16.58400 618 ft 145 kts 164°
2026-05-06 12:45 48.08490 16.59274 1699 ft 159 kts 168°
2026-05-06 12:46 48.07380 16.59728 2168 ft 174 kts 168°
2026-05-06 12:46 48.06137 16.59921 2467 ft 194 kts 195°
2026-05-06 12:46 48.04913 16.58831 2774 ft 220 kts 219°
2026-05-06 12:46 48.03760 16.57151 3290 ft 240 kts 225°
2026-05-06 12:47 48.02728 16.55146 4144 ft 250 kts 243°
2026-05-06 12:47 48.02466 16.52527 5028 ft 263 kts 266°
2026-05-06 12:47 48.02508 16.49779 5940 ft 266 kts 266°
2026-05-06 12:47 48.02543 16.47010 6827 ft 268 kts 265°
2026-05-06 12:48 48.02568 16.44212 7684 ft 271 kts 266°
2026-05-06 12:48 48.02585 16.41391 8569 ft 272 kts 266°
2026-05-06 12:48 48.02596 16.38550 9443 ft 275 kts 266°
2026-05-06 12:48 48.02763 16.35686 10216 ft 282 kts 277°
2026-05-06 12:49 48.03154 16.32699 10543 ft 304 kts 277°
2026-05-06 12:49 48.03575 16.29477 10756 ft 327 kts 277°
2026-05-06 12:49 48.04027 16.26016 10903 ft 350 kts 277°
2026-05-06 12:49 48.04506 16.22338 11070 ft 370 kts 277°
2026-05-06 12:50 48.05008 16.18512 11544 ft 379 kts 278°
2026-05-06 12:50 48.05519 16.14627 12143 ft 383 kts 278°
2026-05-06 12:50 48.06031 16.10712 12808 ft 386 kts 278°
2026-05-06 12:50 48.06538 16.06809 13466 ft 389 kts 278°
2026-05-06 12:51 48.07051 16.02826 14043 ft 391 kts 278°
2026-05-06 12:51 48.07570 15.98762 14608 ft 395 kts 277°
2026-05-06 12:51 48.08076 15.94772 15162 ft 397 kts 277°
2026-05-06 12:51 48.08593 15.90695 15617 ft 402 kts 277°
2026-05-06 12:52 48.09135 15.86573 16105 ft 406 kts 278°
2026-05-06 12:52 48.09775 15.82433 16602 ft 410 kts 280°
2026-05-06 12:52 48.10488 15.78295 17134 ft 412 kts 281°
2026-05-06 12:52 48.11238 15.74136 17648 ft 415 kts 281°
2026-05-06 12:53 48.11997 15.69950 18135 ft 418 kts 281°
2026-05-06 12:53 48.12751 15.65722 18567 ft 421 kts 281°
2026-05-06 12:53 48.13491 15.61479 18973 ft 423 kts 280°
2026-05-06 12:53 48.14220 15.57209 19384 ft 425 kts 280°
2026-05-06 12:54 48.14944 15.52909 19808 ft 426 kts 280°
2026-05-06 12:54 48.15662 15.48599 20206 ft 428 kts 280°
2026-05-06 12:54 48.16381 15.44262 20584 ft 429 kts 279°
2026-05-06 12:54 48.17103 15.39916 20940 ft 431 kts 279°
2026-05-06 12:55 48.17791 15.35536 21270 ft 432 kts 278°
2026-05-06 12:55 48.18422 15.31131 21607 ft 433 kts 277°
2026-05-06 12:55 48.19015 15.26701 21939 ft 434 kts 277°
2026-05-06 12:55 48.19595 15.22249 22257 ft 436 kts 277°
2026-05-06 12:56 48.20178 15.17773 22564 ft 438 kts 277°
2026-05-06 12:56 48.20768 15.13284 22867 ft 440 kts 277°
2026-05-06 12:56 48.21368 15.08787 23215 ft 441 kts 277°
2026-05-06 12:56 48.21978 15.04277 23504 ft 442 kts 277°
2026-05-06 12:57 48.22593 14.99759 23756 ft 443 kts 277°
2026-05-06 12:57 48.23207 14.95231 24000 ft 444 kts 277°
2026-05-06 12:57 48.23820 14.90686 24245 ft 445 kts 277°
2026-05-06 12:57 48.24430 14.86128 24482 ft 446 kts 277°
2026-05-06 12:58 48.25037 14.81562 24717 ft 446 kts 277°
2026-05-06 12:58 48.25641 14.77001 25037 ft 444 kts 277°
2026-05-06 12:58 48.26241 14.72464 25342 ft 443 kts 276°
2026-05-06 12:58 48.26839 14.67936 25683 ft 442 kts 276°
2026-05-06 12:59 48.27431 14.63419 25999 ft 440 kts 276°
2026-05-06 12:59 48.28020 14.58917 26316 ft 439 kts 276°
2026-05-06 12:59 48.28605 14.54421 26632 ft 438 kts 276°
2026-05-06 12:59 48.29187 14.49945 26969 ft 437 kts 276°
2026-05-06 13:00 48.29767 14.45472 27308 ft 435 kts 276°
2026-05-06 13:00 48.30335 14.41082 27658 ft 433 kts 276°
2026-05-06 13:00 48.30908 14.36642 28001 ft 431 kts 276°
2026-05-06 13:00 48.31475 14.32228 28343 ft 430 kts 275°
2026-05-06 13:01 48.32039 14.27817 28712 ft 429 kts 275°
2026-05-06 13:01 48.32599 14.23414 29048 ft 428 kts 275°
2026-05-06 13:01 48.33155 14.19022 29408 ft 427 kts 275°
2026-05-06 13:01 48.33710 14.14642 29708 ft 427 kts 275°
2026-05-06 13:02 48.34265 14.10242 29760 ft 430 kts 275°
2026-05-06 13:02 48.35371 14.01371 29777 ft 433 kts 275°
2026-05-06 13:03 48.36481 13.92476 29777 ft 433 kts 275°
2026-05-06 13:03 48.37593 13.83567 29771 ft 433 kts 275°
2026-05-06 13:04 48.38694 13.74658 29774 ft 433 kts 275°
2026-05-06 13:04 48.39782 13.65745 29773 ft 433 kts 274°
2026-05-06 13:05 48.40866 13.56831 29765 ft 433 kts 274°
2026-05-06 13:05 48.41935 13.47981 29763 ft 432 kts 274°
2026-05-06 13:06 48.43000 13.39068 29795 ft 432 kts 274°
2026-05-06 13:06 48.44528 13.30269 29780 ft 441 kts 285°
2026-05-06 13:07 48.46812 13.21687 29770 ft 441 kts 285°
2026-05-06 13:07 48.49075 13.13096 29772 ft 441 kts 284°
2026-05-06 13:08 48.51325 13.04499 29795 ft 441 kts 284°
2026-05-06 13:08 48.53577 12.95891 29780 ft 441 kts 284°
2026-05-06 13:09 48.55826 12.87270 29774 ft 441 kts 284°
2026-05-06 13:09 48.58062 12.78649 29767 ft 441 kts 284°
2026-05-06 13:10 48.60292 12.70009 29771 ft 440 kts 283°
2026-05-06 13:10 48.61898 12.61183 29778 ft 435 kts 278°
2026-05-06 13:11 48.63382 12.52395 29778 ft 434 kts 277°
2026-05-06 13:11 48.64865 12.43481 29776 ft 434 kts 277°
2026-05-06 13:12 48.66328 12.34630 29777 ft 434 kts 277°
2026-05-06 13:12 48.67800 12.25778 29802 ft 434 kts 277°
2026-05-06 13:13 48.69258 12.16976 29778 ft 434 kts 277°
2026-05-06 13:13 48.70714 12.08095 29765 ft 434 kts 277°
2026-05-06 13:14 48.72162 11.99200 29765 ft 435 kts 277°
2026-05-06 13:14 48.73608 11.90304 29769 ft 435 kts 277°
2026-05-06 13:15 48.75051 11.81404 29798 ft 435 kts 277°
2026-05-06 13:15 48.76476 11.72546 29778 ft 435 kts 277°
2026-05-06 13:16 48.77903 11.63625 29777 ft 436 kts 277°
2026-05-06 13:16 48.79317 11.54687 29772 ft 436 kts 277°
2026-05-06 13:17 48.80730 11.45748 29768 ft 436 kts 277°
2026-05-06 13:17 48.82150 11.36797 29785 ft 437 kts 277°
2026-05-06 13:18 48.83651 11.27846 29757 ft 442 kts 283°
2026-05-06 13:18 48.86603 11.19518 29762 ft 459 kts 301°
2026-05-06 13:19 48.91200 11.12586 29763 ft 468 kts 311°
2026-05-06 13:19 48.96008 11.05893 29779 ft 469 kts 311°
2026-05-06 13:20 49.00805 10.99169 29807 ft 469 kts 311°
2026-05-06 13:20 49.05592 10.92424 29818 ft 469 kts 311°
2026-05-06 13:21 49.10385 10.85665 29810 ft 469 kts 311°
2026-05-06 13:21 49.15170 10.78906 29827 ft 469 kts 311°
2026-05-06 13:21 49.17561 10.75515 29697 ft 468 kts 311°
2026-05-06 13:22 49.19902 10.72184 29064 ft 464 kts 310°
2026-05-06 13:22 49.22250 10.68696 28056 ft 463 kts 309°
2026-05-06 13:22 49.23738 10.66392 27646 ft 457 kts 309°
2026-05-06 13:22 49.25928 10.62912 26945 ft 451 kts 309°
2026-05-06 13:23 49.28072 10.59445 26274 ft 446 kts 309°
2026-05-06 13:23 49.30877 10.54902 25403 ft 440 kts 309°
2026-05-06 13:23 49.32981 10.51520 24756 ft 437 kts 310°
2026-05-06 13:23 49.35082 10.48169 24112 ft 434 kts 310°
2026-05-06 13:24 49.36984 10.44628 23515 ft 426 kts 302°
2026-05-06 13:24 49.38130 10.42121 23247 ft 424 kts 302°
2026-05-06 13:24 49.39820 10.38435 22788 ft 421 kts 302°
2026-05-06 13:24 49.41475 10.34823 22377 ft 418 kts 302°
2026-05-06 13:25 49.43141 10.31180 21977 ft 416 kts 302°
2026-05-06 13:25 49.44795 10.27556 21544 ft 413 kts 302°
2026-05-06 13:25 49.46440 10.23940 21138 ft 411 kts 302°
2026-05-06 13:25 49.48067 10.20358 20712 ft 408 kts 302°
2026-05-06 13:26 49.49685 10.16788 20288 ft 405 kts 302°
2026-05-06 13:26 49.51285 10.13243 19887 ft 402 kts 302°
2026-05-06 13:26 49.52875 10.09716 19480 ft 400 kts 302°
2026-05-06 13:26 49.54456 10.06210 19098 ft 395 kts 302°
2026-05-06 13:27 49.56005 10.02781 18857 ft 385 kts 302°
2026-05-06 13:27 49.57518 9.99437 18615 ft 376 kts 302°
2026-05-06 13:27 49.58997 9.96161 18376 ft 370 kts 301°
2026-05-06 13:27 49.60456 9.92917 18139 ft 367 kts 301°
2026-05-06 13:28 49.61905 9.89679 17885 ft 366 kts 301°
2026-05-06 13:28 49.63335 9.86472 17503 ft 361 kts 301°
2026-05-06 13:28 49.64737 9.83333 17039 ft 359 kts 301°
2026-05-06 13:28 49.66150 9.80167 16571 ft 357 kts 301°
2026-05-06 13:29 49.67553 9.77026 16107 ft 355 kts 301°
2026-05-06 13:29 49.68953 9.73895 15644 ft 353 kts 302°
2026-05-06 13:29 49.70346 9.70774 15192 ft 352 kts 302°
2026-05-06 13:29 49.71730 9.67665 14726 ft 350 kts 301°
2026-05-06 13:30 49.73106 9.64568 14271 ft 349 kts 302°
2026-05-06 13:30 49.74479 9.61478 13812 ft 348 kts 302°
2026-05-06 13:30 49.75848 9.58391 13311 ft 348 kts 302°
2026-05-06 13:30 49.77211 9.55316 12830 ft 345 kts 302°
2026-05-06 13:31 49.78562 9.52261 12358 ft 343 kts 302°
2026-05-06 13:31 49.79902 9.49225 11883 ft 341 kts 302°
2026-05-06 13:31 49.81235 9.46201 11407 ft 338 kts 302°
2026-05-06 13:31 49.82557 9.43228 11091 ft 331 kts 304°
2026-05-06 13:32 49.84225 9.40840 10879 ft 326 kts 327°
2026-05-06 13:32 49.86235 9.39327 10750 ft 316 kts 333°
2026-05-06 13:32 49.88220 9.37995 10623 ft 305 kts 334°
2026-05-06 13:32 49.90143 9.36718 10441 ft 297 kts 334°
2026-05-06 13:33 49.92009 9.35479 10135 ft 294 kts 334°
2026-05-06 13:33 49.93878 9.34230 9804 ft 292 kts 334°
2026-05-06 13:33 49.95745 9.32993 9458 ft 290 kts 334°
2026-05-06 13:33 49.97597 9.31767 9106 ft 288 kts 334°
2026-05-06 13:34 49.99437 9.30546 8715 ft 287 kts 334°
2026-05-06 13:34 50.01261 9.29334 8459 ft 281 kts 334°
2026-05-06 13:34 50.02952 9.27979 8330 ft 266 kts 319°
2026-05-06 13:34 50.04329 9.26153 8198 ft 255 kts 315°
2026-05-06 13:35 50.05610 9.24314 8015 ft 247 kts 314°
2026-05-06 13:35 50.06870 9.22510 7681 ft 245 kts 314°
2026-05-06 13:35 50.08127 9.20724 7339 ft 244 kts 314°
2026-05-06 13:35 50.09374 9.18939 6996 ft 243 kts 314°
2026-05-06 13:36 50.10618 9.17163 6662 ft 242 kts 314°
2026-05-06 13:36 50.11862 9.15403 6374 ft 239 kts 314°
2026-05-06 13:36 50.13075 9.13694 6241 ft 231 kts 314°
2026-05-06 13:36 50.14155 9.11936 6095 ft 218 kts 296°
2026-05-06 13:37 50.14753 9.09812 5829 ft 213 kts 285°
2026-05-06 13:37 50.15137 9.07605 5518 ft 209 kts 271°
2026-05-06 13:37 50.15009 9.05390 5201 ft 205 kts 250°
2026-05-06 13:37 50.14534 9.03342 4948 ft 201 kts 248°
2026-05-06 13:38 50.14072 9.01355 4869 ft 189 kts 248°
2026-05-06 13:38 50.13638 8.99489 4719 ft 177 kts 248°
2026-05-06 13:38 50.13228 8.97736 4589 ft 167 kts 248°
2026-05-06 13:38 50.12843 8.96090 4451 ft 156 kts 247°
2026-05-06 13:39 50.12486 8.94565 4348 ft 142 kts 248°
2026-05-06 13:39 50.12160 8.93175 4227 ft 134 kts 248°
2026-05-06 13:39 50.11835 8.91789 4160 ft 137 kts 248°
2026-05-06 13:39 50.11509 8.90403 4093 ft 136 kts 248°
2026-05-06 13:40 50.11184 8.89016 4014 ft 136 kts 249°
2026-05-06 13:40 50.10859 8.87633 3934 ft 136 kts 249°
2026-05-06 13:40 50.10536 8.86260 3866 ft 133 kts 248°
2026-05-06 13:40 50.10218 8.84908 3808 ft 134 kts 249°
2026-05-06 13:41 50.09896 8.83540 3673 ft 136 kts 249°
2026-05-06 13:41 50.09572 8.82166 3520 ft 134 kts 249°
2026-05-06 13:41 50.09256 8.80825 3352 ft 132 kts 249°
2026-05-06 13:41 50.08939 8.79480 3183 ft 132 kts 249°
2026-05-06 13:42 50.08624 8.78146 3010 ft 132 kts 248°
2026-05-06 13:42 50.08304 8.76792 2833 ft 133 kts 249°
2026-05-06 13:42 50.07985 8.75441 2654 ft 133 kts 248°
2026-05-06 13:42 50.07672 8.74114 2486 ft 132 kts 249°
2026-05-06 13:43 50.07362 8.72784 2311 ft 130 kts 250°
2026-05-06 13:43 50.07188 8.71388 2121 ft 132 kts 263°
2026-05-06 13:43 50.07076 8.69979 1919 ft 130 kts 255°
2026-05-06 13:43 50.06851 8.68641 1764 ft 127 kts 251°
2026-05-06 13:44 50.06579 8.67320 1605 ft 129 kts 249°
2026-05-06 13:44 50.06264 8.66001 1417 ft 130 kts 246°
2026-05-06 13:44 50.05950 8.64699 1298 ft 128 kts 248°
2026-05-06 13:44 50.05647 8.63407 1087 ft 127 kts 244°
2026-05-06 13:45 50.05333 8.62105 895 ft 130 kts 242°
2026-05-06 13:45 50.04701 8.59454 515 ft 129 kts 246°
2026-05-06 13:45 50.04383 8.58151 373 ft 125 kts 249°
2026-05-06 13:46 50.04120 8.57053 366 ft 87 kts 250°
2026-05-06 13:46 50.03991 8.56495 359 ft 34 kts 256°
2026-05-06 13:46 50.04009 8.56222 354 ft 19 kts 279°
2026-05-06 13:46 50.04055 8.56136 353 ft 4 kts 339°
2026-05-06 13:47 50.04056 8.56135 353 ft 0 kts 339°
2026-05-06 13:48 50.04086 8.56143 352 ft 9 kts 29°
2026-05-06 13:48 50.04121 8.56255 353 ft 16 kts 70°
2026-05-06 13:48 50.04166 8.56445 355 ft 18 kts 70°
2026-05-06 13:48 50.04207 8.56614 358 ft 15 kts 69°
2026-05-06 13:49 50.04242 8.56760 362 ft 13 kts 69°
2026-05-06 13:49 50.04305 8.56815 360 ft 10 kts 11°
2026-05-06 13:49 50.04362 8.56832 360 ft 5 kts 12°
2026-05-06 13:49 50.04382 8.56838 360 ft 5 kts 10°
2026-05-06 13:50 50.04431 8.56849 363 ft 10 kts
2026-05-06 13:50 50.04506 8.56874 359 ft 14 kts 15°
2026-05-06 13:50 50.04575 8.56884 357 ft 7 kts 319°
2026-05-06 13:50 50.04599 8.56801 357 ft 7 kts 295°
2026-05-06 13:51 50.04606 8.56776 360 ft 0 kts 295°